KB7STN Weather Reports


time (UTC)temp
C
wind
direction
speed
KPH
gust
KPH
rain 1hr
cm
rain 24hr
cm
rain mn
cm
humidity
%
barometer
mb
20260904180015 26 273 4.8 22.5 0.00 0.00 0.00 21 1016.3
20260904175515 26 240 3.2 14.5 0.00 0.00 0.00 23 1016.4
20260904175015 26 211 3.2 12.9 0.00 0.00 0.00 24 1016.5
20260904174515 25 260 3.2 16.1 0.00 0.00 0.00 26 1016.3
20260904174015 25 214 3.2 8.0 0.00 0.00 0.00 26 1016.3
20260904173515 25 225 4.8 17.7 0.00 0.00 0.00 27 1016.4
20260904173015 25 268 4.8 12.9 0.00 0.00 0.00 27 1016.5
20260904172515 25 221 4.8 17.7 0.00 0.00 0.00 27 1016.5
20260904172015 25 234 3.2 19.3 0.00 0.00 0.00 27 1016.4
20260904171515 25 240 4.8 16.1 0.00 0.00 0.00 27 1016.5
20260904171015 25 245 4.8 19.3 0.00 0.00 0.00 27 1016.5
20260904170515 25 221 4.8 16.1 0.00 0.00 0.00 28 1016.4
20260904170015 25 222 3.2 12.9 0.00 0.00 0.00 27 1016.7
20260904165515 24 227 3.2 8.0 0.00 0.00 0.00 27 1016.5
20260904165015 24 207 3.2 11.3 0.00 0.00 0.00 27 1016.5
20260904164515 24 206 1.6 11.3 0.00 0.00 0.00 27 1016.6
20260904164015 23 234 1.6 8.0 0.00 0.00 0.00 28 1016.6
20260904163515 23 238 1.6 9.7 0.00 0.00 0.00 28 1016.8
20260904163015 23 270 3.2 20.9 0.00 0.00 0.00 27 1016.7
20260904162515 23 244 1.6 4.8 0.00 0.00 0.00 27 1016.8
20260904162015 23 250 3.2 12.9 0.00 0.00 0.00 29 1016.7
20260904161515 23 251 3.2 9.7 0.00 0.00 0.00 30 1016.7
20260904161015 23 289 1.6 8.0 0.00 0.00 0.00 29 1016.7
20260904160515 23 272 1.6 14.5 0.00 0.00 0.00 29 1016.7
20260904160015 23 150 3.2 11.3 0.00 0.00 0.00 29 1016.7
20260904155515 23 217 1.6 9.7 0.00 0.00 0.00 27 1016.5
20260904155015 23 236 1.6 6.4 0.00 0.00 0.00 28 1016.5
20260904154515 23 236 1.6 8.0 0.00 0.00 0.00 27 1016.5
20260904154015 23 237 1.6 6.4 0.00 0.00 0.00 27 1016.6
20260904153515 22 238 0.0 8.0 0.00 0.00 0.00 27 1016.5
20260904153015 22 238 0.0 4.8 0.00 0.00 0.00 28 1016.6
20260904152515 22 238 0.0 9.7 0.00 0.00 0.00 27 1016.6
20260904152015 22 238 0.0 6.4 0.00 0.00 0.00 26 1016.6
20260904151515 22 238 0.0 8.0 0.00 0.00 0.00 27 1016.7
20260904151015 22 240 1.6 6.4 0.00 0.00 0.00 27 1016.6
20260904150515 22 231 1.6 8.0 0.00 0.00 0.00 27 1016.6
20260904150015 22 232 0.0 6.4 0.00 0.00 0.00 26 1016.6
20260904145515 21 233 0.0 4.8 0.00 0.00 0.00 26 1016.6
20260904145015 21 234 0.0 3.2 0.00 0.00 0.00 26 1016.5
20260904144515 21 233 0.0 4.8 0.00 0.00 0.00 25 1016.5
20260904144016 21 233 0.0 4.8 0.00 0.00 0.00 26 1016.5
20260904143515 21 233 0.0 4.8 0.00 0.00 0.00 26 1016.4
20260904143016 21 234 1.6 3.2 0.00 0.00 0.00 26 1016.4
20260904142516 20 234 1.6 9.7 0.00 0.00 0.00 26 1016.4
20260904142016 20 237 1.6 11.3 0.00 0.00 0.00 26 1016.5
20260904141516 20 236 0.0 6.4 0.00 0.00 0.00 25 1016.5
20260904141016 20 236 0.0 0.0 0.00 0.00 0.00 26 1016.5
20260904140516 20 236 0.0 4.8 0.00 0.00 0.00 26 1016.4
20260904140016 20 236 0.0 4.8 0.00 0.00 0.00 26 1016.4
20260904135516 20 236 0.0 4.8 0.00 0.00 0.00 26 1016.3
20260904135016 20 238 0.0 8.0 0.00 0.00 0.00 25 1016.3
20260904134516 19 234 0.0 3.2 0.00 0.00 0.00 25 1016.2
20260904134016 19 234 0.0 4.8 0.00 0.00 0.00 25 1016.2
20260904133516 19 236 0.0 1.6 0.00 0.00 0.00 25 1016.1
20260904133016 18 237 0.0 3.2 0.00 0.00 0.00 24 1016.0
20260904132516 18 237 1.6 9.7 0.00 0.00 0.00 24 1016.0
20260904132016 18 239 1.6 6.4 0.00 0.00 0.00 24 1015.9
20260904131516 18 240 1.6 9.7 0.00 0.00 0.00 23 1015.9
20260904131016 18 235 1.6 12.9 0.00 0.00 0.00 23 1015.8
20260904130516 18 257 1.6 9.7 0.00 0.00 0.00 23 1015.7
20260904130016 18 227 1.6 12.9 0.00 0.00 0.00 22 1015.7
20260904125516 18 209 1.6 6.4 0.00 0.00 0.00 21 1015.7
20260904125016 18 208 1.6 8.0 0.00 0.00 0.00 20 1015.6
20260904124516 18 211 1.6 8.0 0.00 0.00 0.00 20 1015.5
20260904124016 18 208 1.6 11.3 0.00 0.00 0.00 20 1015.4
20260904123516 18 209 1.6 8.0 0.00 0.00 0.00 20 1015.4
20260904123016 18 208 1.6 4.8 0.00 0.00 0.00 20 1015.2
20260904122516 18 208 1.6 9.7 0.00 0.00 0.00 19 1015.2
20260904122016 18 205 1.6 6.4 0.00 0.00 0.00 20 1015.1
20260904121516 18 203 0.0 4.8 0.00 0.00 0.00 20 1015.1
20260904121016 18 202 1.6 4.8 0.00 0.00 0.00 19 1015.1
20260904120516 18 202 1.6 6.4 0.00 0.00 0.00 19 1015.1
20260904120016 18 205 3.2 9.7 0.00 0.00 0.00 19 1014.9
20260904115516 18 202 1.6 9.7 0.00 0.00 0.00 19 1014.9
20260904115016 18 203 1.6 6.4 0.00 0.00 0.00 20 1014.8
20260904114516 18 205 1.6 6.4 0.00 0.00 0.00 19 1014.9
20260904114016 18 211 3.2 6.4 0.00 0.00 0.00 19 1014.8
20260904113516 19 212 1.6 6.4 0.00 0.00 0.00 18 1014.8
20260904113016 19 212 1.6 4.8 0.00 0.00 0.00 18 1014.8
20260904112516 19 213 1.6 8.0 0.00 0.00 0.00 18 1014.8
20260904112016 20 213 1.6 8.0 0.00 0.00 0.00 18 1014.8
20260904111516 20 213 1.6 6.4 0.00 0.00 0.00 18 1014.8
20260904111016 20 230 3.2 4.8 0.00 0.00 0.00 18 1014.8
20260904110516 20 239 3.2 11.3 0.00 0.00 0.00 18 1014.8
20260904110016 20 239 3.2 8.0 0.00 0.00 0.00 18 1014.7
20260904105516 20 242 1.6 9.7 0.00 0.00 0.00 17 1014.7
20260904105016 20 243 1.6 9.7 0.00 0.00 0.00 18 1014.5
20260904104516 20 238 1.6 9.7 0.00 0.00 0.00 17 1014.6
20260904104016 20 240 3.2 6.4 0.00 0.00 0.00 18 1014.5
20260904103516 20 241 3.2 12.9 0.00 0.00 0.00 17 1014.5
20260904103016 20 242 3.2 6.4 0.00 0.00 0.00 17 1014.6
20260904102516 20 249 1.6 11.3 0.00 0.00 0.00 17 1014.6
20260904102016 20 249 1.6 11.3 0.00 0.00 0.00 17 1014.6
20260904101516 20 252 1.6 4.8 0.00 0.00 0.00 18 1014.5
20260904101016 20 252 3.2 6.4 0.00 0.00 0.00 18 1014.5
20260904100516 20 252 1.6 8.0 0.00 0.00 0.00 17 1014.4
20260904100016 19 252 1.6 8.0 0.00 0.00 0.00 18 1014.4
20260904095516 19 253 1.6 6.4 0.00 0.00 0.00 18 1014.4
20260904095016 19 253 0.0 4.8 0.00 0.00 0.00 18 1014.4
20260904094516 19 254 0.0 1.6 0.00 0.00 0.00 18 1014.5
20260904094016 19 254 0.0 3.2 0.00 0.00 0.00 18 1014.5
20260904093516 19 253 0.0 4.8 0.00 0.00 0.00 18 1014.5
20260904093016 19 254 0.0 4.8 0.00 0.00 0.00 18 1014.6
20260904092516 19 254 0.0 0.0 0.00 0.00 0.00 18 1014.6
20260904092016 19 254 0.0 4.8 0.00 0.00 0.00 18 1014.6
20260904091516 19 254 0.0 3.2 0.00 0.00 0.00 18 1014.5
20260904091016 19 254 0.0 4.8 0.00 0.00 0.00 18 1014.5
20260904090516 18 254 0.0 3.2 0.00 0.00 0.00 18 1014.5
20260904090016 18 254 0.0 3.2 0.00 0.00 0.00 19 1014.5
20260904085516 18 254 0.0 0.0 0.00 0.00 0.00 19 1014.5
20260904085016 18 254 0.0 0.0 0.00 0.00 0.00 21 1014.4
20260904084516 18 254 0.0 0.0 0.00 0.00 0.00 20 1014.5
20260904084016 18 254 0.0 0.0 0.00 0.00 0.00 20 1014.4
20260904083516 19 254 0.0 0.0 0.00 0.00 0.00 21 1014.4
20260904083016 19 254 0.0 0.0 0.00 0.00 0.00 20 1014.4
20260904082516 19 254 0.0 0.0 0.00 0.00 0.00 20 1014.3
20260904082016 20 254 0.0 1.6 0.00 0.00 0.00 20 1014.2
20260904081516 20 254 0.0 4.8 0.00 0.00 0.00 20 1014.1
20260904081016 20 254 0.0 0.0 0.00 0.00 0.00 20 1014.1
20260904080516 20 254 0.0 4.8 0.00 0.00 0.00 19 1014.0
20260904080016 20 254 0.0 0.0 0.00 0.00 0.00 19 1014.0
20260904075516 20 254 0.0 0.0 0.00 0.00 0.00 18 1014.1
20260904075016 20 254 0.0 0.0 0.00 0.00 0.00 19 1014.2
20260904074516 20 254 0.0 0.0 0.00 0.00 0.00 19 1014.2
20260904074016 20 254 0.0 4.8 0.00 0.00 0.00 18 1014.1
20260904073516 20 254 0.0 0.0 0.00 0.00 0.00 18 1014.1
20260904073016 20 254 1.6 8.0 0.00 0.00 0.00 18 1014.0
20260904072516 20 254 1.6 4.8 0.00 0.00 0.00 18 1013.9
20260904072016 21 254 0.0 4.8 0.00 0.00 0.00 18 1013.8
20260904071516 21 254 0.0 4.8 0.00 0.00 0.00 18 1013.9
20260904071016 21 254 1.6 6.4 0.00 0.00 0.00 18 1013.8
20260904070517 21 257 1.6 11.3 0.00 0.00 0.00 18 1013.9
20260904070016 21 256 1.6 12.9 0.00 0.00 0.00 18 1013.9
20260904065516 21 259 0.0 6.4 0.00 0.00 0.00 18 1013.8
20260904065016 21 259 0.0 4.8 0.00 0.00 0.00 18 1013.9
20260904064516 21 259 1.6 8.0 0.00 0.00 0.00 18 1013.8
20260904064016 21 259 1.6 6.4 0.00 0.00 0.00 18 1013.7
20260904063516 21 259 1.6 8.0 0.00 0.00 0.00 18 1013.6
20260904063016 21 259 1.6 8.0 0.00 0.00 0.00 18 1013.6
20260904062516 21 260 1.6 8.0 0.00 0.00 0.00 18 1013.5
20260904062016 21 261 1.6 8.0 0.00 0.00 0.00 18 1013.5
20260904061516 22 264 1.6 6.4 0.00 0.00 0.00 18 1013.4
20260904061016 22 265 1.6 4.8 0.00 0.00 0.00 18 1013.4
20260904060516 22 265 1.6 9.7 0.00 0.00 0.00 18 1013.4
20260904060016 22 284 1.6 6.4 0.00 0.00 0.00 18 1013.4
20260904055516 22 284 1.6 8.0 0.00 0.00 0.00 17 1013.4
20260904055016 22 298 1.6 12.9 0.00 0.00 0.00 17 1013.3
20260904054516 22 257 1.6 11.3 0.00 0.00 0.00 17 1013.4
20260904054016 22 241 1.6 8.0 0.00 0.00 0.00 17 1013.3
20260904053516 23 272 3.2 11.3 0.00 0.00 0.00 17 1013.3
20260904053016 23 286 1.6 14.5 0.00 0.00 0.00 17 1013.2
20260904052516 23 250 1.6 9.7 0.00 0.00 0.00 17 1013.2
20260904052016 23 194 1.6 11.3 0.00 0.00 0.00 17 1013.2
20260904051516 23 224 3.2 11.3 0.00 0.00 0.00 17 1013.2
20260904051016 23 251 3.2 11.3 0.00 0.00 0.00 17 1013.1
20260904050517 23 220 3.2 8.0 0.00 0.00 0.00 17 1013.1
20260904050016 23 232 3.2 9.7 0.00 0.00 0.00 17 1013.1
20260904045516 23 221 3.2 12.9 0.00 0.00 0.00 17 1013.0
20260904045016 23 201 3.2 11.3 0.00 0.00 0.00 17 1013.1
20260904044516 23 196 3.2 12.9 0.00 0.00 0.00 17 1013.1
20260904044017 23 227 3.2 11.3 0.00 0.00 0.00 17 1013.1
20260904043516 23 223 3.2 11.3 0.00 0.00 0.00 17 1013.1
20260904043017 23 238 3.2 8.0 0.00 0.00 0.00 17 1013.1
20260904042516 23 241 1.6 17.7 0.00 0.00 0.00 17 1013.1
20260904042017 23 261 1.6 3.2 0.00 0.00 0.00 17 1013.1
20260904041517 23 261 0.0 6.4 0.00 0.00 0.00 17 1013.0
20260904041017 23 261 0.0 6.4 0.00 0.00 0.00 17 1013.1
20260904040517 23 261 0.0 8.0 0.00 0.00 0.00 17 1013.0
20260904040017 23 263 0.0 4.8 0.00 0.00 0.00 17 1013.0
20260904035517 23 263 0.0 4.8 0.00 0.00 0.00 17 1012.9
20260904035017 23 263 0.0 4.8 0.00 0.00 0.00 17 1012.7
20260904034517 23 263 0.0 8.0 0.00 0.00 0.00 17 1012.7
20260904034017 23 263 0.0 4.8 0.00 0.00 0.00 17 1012.6
20260904033517 23 263 0.0 6.4 0.00 0.00 0.00 17 1012.7
20260904033017 23 263 0.0 4.8 0.00 0.00 0.00 17 1012.7
20260904032517 23 263 0.0 0.0 0.00 0.00 0.00 17 1012.7
20260904032017 23 264 0.0 3.2 0.00 0.00 0.00 17 1012.7
20260904031517 23 263 0.0 1.6 0.00 0.00 0.00 18 1012.6
20260904031017 23 264 0.0 0.0 0.00 0.00 0.00 17 1012.6
20260904030517 23 264 0.0 0.0 0.00 0.00 0.00 16 1012.6
20260904030017 23 263 0.0 4.8 0.00 0.00 0.00 17 1012.5
20260904025517 23 264 0.0 6.4 0.00 0.00 0.00 16 1012.5
20260904025017 23 264 0.0 0.0 0.00 0.00 0.00 16 1012.5
20260904024517 24 264 0.0 0.0 0.00 0.00 0.00 17 1012.5
20260904024017 24 264 1.6 4.8 0.00 0.00 0.00 16 1012.5
20260904023517 24 265 1.6 4.8 0.00 0.00 0.00 16 1012.5
20260904023017 24 265 0.0 0.0 0.00 0.00 0.00 16 1012.5
20260904022517 24 264 0.0 3.2 0.00 0.00 0.00 16 1012.3
20260904022017 24 264 0.0 1.6 0.00 0.00 0.00 16 1012.4
20260904021517 25 264 0.0 3.2 0.00 0.00 0.00 16 1012.4
20260904021017 25 264 0.0 4.8 0.00 0.00 0.00 16 1012.4
20260904020517 25 265 1.6 3.2 0.00 0.00 0.00 16 1012.4
20260904020017 25 269 1.6 6.4 0.00 0.00 0.00 15 1012.4
20260904015517 25 268 1.6 9.7 0.00 0.00 0.00 15 1012.4
20260904015017 25 283 0.0 6.4 0.00 0.00 0.00 15 1012.4
20260904014517 25 287 1.6 8.0 0.00 0.00 0.00 15 1012.5
20260904014017 25 289 1.6 14.5 0.00 0.00 0.00 15 1012.5
20260904013517 25 246 0.0 6.4 0.00 0.00 0.00 15 1012.4
20260904013017 25 236 1.6 6.4 0.00 0.00 0.00 15 1012.5
20260904012517 25 228 1.6 12.9 0.00 0.00 0.00 15 1012.4
20260904012017 25 261 1.6 8.0 0.00 0.00 0.00 16 1012.5
20260904011517 26 253 1.6 11.3 0.00 0.00 0.00 15 1012.6
20260904011017 26 257 1.6 12.9 0.00 0.00 0.00 15 1012.5
20260904010517 26 256 1.6 8.0 0.00 0.00 0.00 15 1012.6
20260904010017 26 273 3.2 20.9 0.00 0.00 0.00 15 1012.7
20260904005517 26 211 1.6 11.3 0.00 0.00 0.00 15 1012.7
20260904005017 26 257 1.6 6.4 0.00 0.00 0.00 15 1012.8
20260904004517 26 261 1.6 6.4 0.00 0.00 0.00 15 1012.8
20260904004017 26 260 1.6 9.7 0.00 0.00 0.00 15 1012.8
20260904003517 26 258 1.6 12.9 0.00 0.00 0.00 15 1012.8
20260904003017 26 260 1.6 17.7 0.00 0.00 0.00 15 1012.7
20260904002517 26 278 1.6 12.9 0.00 0.00 0.00 15 1013.0
20260904002017 26 223 1.6 11.3 0.00 0.00 0.00 15 1012.8
20260904001517 26 236 1.6 9.7 0.00 0.00 0.00 15 1012.7
20260904001017 27 257 1.6 12.9 0.00 0.00 0.00 16 1012.8
20260904000517 27 257 3.2 9.7 0.00 0.00 0.00 15 1012.7
20260904000017 27 256 1.6 8.0 0.00 0.00 0.00 15 1012.8
20260903235517 27 244 1.6 12.9 0.00 0.00 0.00 16 1012.7
20260903235017 27 246 1.6 9.7 0.00 0.00 0.00 16 1012.7
20260903234517 27 273 3.2 9.7 0.00 0.00 0.00 15 1012.8
20260903234017 27 256 3.2 12.9 0.00 0.00 0.00 15 1013.0
20260903233517 27 212 3.2 11.3 0.00 0.00 0.00 15 1013.0
20260903233017 27 213 3.2 11.3 0.00 0.00 0.00 15 1013.1
20260903232517 27 229 3.2 11.3 0.00 0.00 0.00 15 1013.0
20260903232017 27 196 3.2 16.1 0.00 0.00 0.00 15 1013.1
20260903231517 27 236 1.6 8.0 0.00 0.00 0.00 15 1013.1
20260903231017 27 238 1.6 8.0 0.00 0.00 0.00 15 1013.1
20260903230517 27 247 1.6 22.5 0.00 0.00 0.00 15 1013.3
20260903230017 27 291 3.2 12.9 0.00 0.00 0.00 15 1013.5
20260903225517 27 166 3.2 9.7 0.00 0.00 0.00 15 1013.4
20260903225017 27 220 1.6 14.5 0.00 0.00 0.00 14 1013.4
20260903224517 27 230 3.2 9.7 0.00 0.00 0.00 14 1013.6
20260903224017 27 264 3.2 12.9 0.00 0.00 0.00 14 1013.7
20260903223517 27 289 3.2 9.7 0.00 0.00 0.00 14 1013.7
20260903223017 27 296 3.2 16.1 0.00 0.00 0.00 13 1013.9
20260903222517 27 271 3.2 14.5 0.00 0.00 0.00 15 1013.8
20260903222017 27 210 3.2 11.3 0.00 0.00 0.00 14 1014.0
20260903221517 27 265 3.2 11.3 0.00 0.00 0.00 14 1014.1
20260903221017 27 217 3.2 14.5 0.00 0.00 0.00 13 1014.1
20260903220517 27 230 1.6 9.7 0.00 0.00 0.00 15 1014.1
20260903220017 27 213 1.6 6.4 0.00 0.00 0.00 14 1014.2
20260903215517 27 214 1.6 8.0 0.00 0.00 0.00 14 1014.2
20260903215017 27 219 1.6 8.0 0.00 0.00 0.00 14 1014.3
20260903214517 27 231 3.2 11.3 0.00 0.00 0.00 15 1014.3
20260903214017 27 250 4.8 12.9 0.00 0.00 0.00 14 1014.4
20260903213517 27 223 4.8 12.9 0.00 0.00 0.00 14 1014.3
20260903213017 27 229 4.8 11.3 0.00 0.00 0.00 13 1014.5
20260903212517 27 208 3.2 8.0 0.00 0.00 0.00 13 1014.4
20260903212017 27 267 1.6 12.9 0.00 0.00 0.00 15 1014.5
20260903211517 27 268 3.2 12.9 0.00 0.00 0.00 14 1014.5
20260903211017 27 223 3.2 22.5 0.00 0.00 0.00 14 1014.7
20260903210517 27 275 3.2 9.7 0.00 0.00 0.00 15 1014.7
20260903210017 27 211 6.4 16.1 0.00 0.00 0.00 14 1014.9
20260903205517 27 207 3.2 14.5 0.00 0.00 0.00 14 1015.0
20260903205017 27 194 1.6 6.4 0.00 0.00 0.00 16 1014.9
20260903204517 27 207 1.6 11.3 0.00 0.00 0.00 15 1015.1
20260903204017 27 221 1.6 12.9 0.00 0.00 0.00 15 1015.1
20260903203517 27 246 1.6 19.3 0.00 0.00 0.00 15 1015.2
20260903203017 27 214 3.2 8.0 0.00 0.00 0.00 15 1015.3
20260903202517 27 243 3.2 14.5 0.00 0.00 0.00 15 1015.4
20260903202017 27 217 1.6 12.9 0.00 0.00 0.00 16 1015.6
20260903201517 26 208 0.0 6.4 0.00 0.00 0.00 17 1015.6
20260903201017 26 209 0.0 6.4 0.00 0.00 0.00 15 1015.6
20260903200517 26 223 1.6 12.9 0.00 0.00 0.00 15 1015.7
20260903200017 26 258 3.2 9.7 0.00 0.00 0.00 16 1015.8
20260903195517 26 229 3.2 9.7 0.00 0.00 0.00 15 1015.9
20260903195017 26 217 4.8 11.3 0.00 0.00 0.00 16 1015.9
20260903194517 26 211 1.6 16.1 0.00 0.00 0.00 16 1015.8
20260903194017 26 263 0.0 3.2 0.00 0.00 0.00 17 1016.0
20260903193517 26 263 3.2 11.3 0.00 0.00 0.00 16 1016.0
20260903193017 26 270 3.2 12.9 0.00 0.00 0.00 15 1016.2
20260903192517 26 184 3.2 12.9 0.00 0.00 0.00 15 1016.3
20260903192017 26 174 1.6 11.3 0.00 0.00 0.00 16 1016.3
20260903191517 26 261 1.6 6.4 0.00 0.00 0.00 17 1016.4
20260903191017 26 271 1.6 9.7 0.00 0.00 0.00 17 1016.5
20260903190517 26 257 1.6 9.7 0.00 0.00 0.00 17 1016.5
20260903190017 26 277 1.6 9.7 0.00 0.00 0.00 17 1016.7
20260903185518 26 213 1.6 17.7 0.00 0.00 0.00 16 1016.7
20260903185017 26 220 1.6 12.9 0.00 0.00 0.00 17 1016.7
20260903184517 25 228 1.6 9.7 0.00 0.00 0.00 17 1016.8
20260903184017 25 252 1.6 8.0 0.00 0.00 0.00 16 1016.9
20260903183517 25 263 1.6 8.0 0.00 0.00 0.00 17 1016.9
20260903183017 25 276 3.2 12.9 0.00 0.00 0.00 16 1016.8
20260903182517 25 231 3.2 9.7 0.00 0.00 0.00 16 1017.3
20260903182017 25 210 4.8 12.9 0.00 0.00 0.00 18 1017.0
20260903181517 25 220 4.8 17.7 0.00 0.00 0.00 17 1017.0
20260903181018 25 211 3.2 9.7 0.00 0.00 0.00 18 1017.3
20260903180518 25 198 3.2 12.9 0.00 0.00 0.00 17 1017.3